星链-6064 (STARLINK-6064 )

导读 | 星芒AI

STARLINK-6064 是 SpaceX Starlink 项目中的一颗低轨通信卫星,属于第 27 批部署的星链卫星群。该卫星于 2023 年发射,运行在约 550 公里的近地轨道,旨在为全球用户提供高速互联网服务。作为星链网络的一部分,STARLINK-6064 采用先进推进系统和激光通信技术,支持卫星间高速数据传输,提升网络稳定性和覆盖范围。该项目致力于改善偏远地区网络接入,推动全球通信基础设施现代化。

基本信息
目录编号:
56805
目录名称:
STARLINK-6064
国际标识:
2023-078AQ
轨道中心:
EARTH
卫星名称:
星链-6064
卫星全名:
星链-6064 (STARLINK-6064 )
卫星状态:
在轨 (已飞行888 天)
发射日期:
2023-05-31 UTC
国别 :
美国 (US)
星等 :
--
轨道信息
数据来源 国际轨道数据
星历时间: 2025-11-03T23:21:51+0800
16小时前
查看轨道信息
半长轴: 6949.876km
偏心率: 0.0003464
轨道倾角: 69.998°
近地点辐角 271.401°
升交点赤经 282.220°
平近点角 88.676°
近地点: 569.333km
远地点: 574.149km
周期: 96.100分钟
每日圈数: 14.984327
详细信息
固有亮度:
5
最大亮度:
2.5
卫星平台:
Starlink v1.5
覆盖范围:
全球
运营商:
太空探索技术公司
运营商所在国:
美国
制造商(研发单位):
太空探索技术公司
制造商所在国:
美国
使用方式:
暂无
卫星简介
星链(Starlink)计划是由太空探索技术公司(SpaceX)提出的一个巨型低轨卫星互联网星座项目,计划在2019年至2024年间在太空搭建由约1.2万颗卫星组成的“星链”网络,其中1584颗将部署在地球上空550千米处的近地轨道,并从2020年开始工作。该卫星仍在工作。
2D轨道图
3D轨道图
轨道高度分析图
轨道倾角分析图
轨道综合分析图
查看轨道综合分析图